User: anonymous   Login
Location: Unspecified
(0.0000°N, 0.0000°E)
Time: 13:16:27
(UTC+01:00)
Language:

GPS 2-12 Rocket1 - Orbit

View from above orbital plane
View from above orbital plane
View from above satellite
View from above satellite

Ground track
Ground track

The orbit data is extracted from the following two-line orbital elements,

1 21891U 92009B   15086.84302952  .00002978  00000-0  31190-3 0  9997
2 21891 019.9978 000.3273 0048315 139.1316 221.2738 14.81875647245553
Epoch (UTC): 27 March 2015 20:13:57
Eccentricity: 0.0048315
inclination: 19.9978°
perigee height: 589 km
apogee height: 657 km
right ascension of ascending node: 0.3273°
argument of perigee: 139.1316°
revolutions per day: 14.81875647
mean anomaly at epoch: 221.2738°
orbit number at epoch: 24555

The dashed part of the orbit path shows where the satellite is in the earth's shadow,  

DLR